Iowa Falls, IA

12:12 AM CST on December 10, 2019 (GMT -0600)
Iowa Falls Municipal

Weather History for KIFA - October, 2019

Change the Weather History Date:

Tuesday, October 1, 2019

  Actual Average Record
Temperature  
Mean Temperature 66 °F -  
Max Temperature 74 °F 73 °F 92 °F (1976)
Min Temperature 58 °F 46 °F 23 °F (1958)
Cooling Degree Days 2    
Growing Degree Days 16 (Base 50)    
Moisture  
Dew Point 61 °F    
Average Humidity 85    
Maximum Humidity 89    
Minimum Humidity 79    
Precipitation  
Precipitation 1.46 in - - ()
Sea Level Pressure  
Sea Level Pressure 29.89 in    
Wind  
Wind Speed 6 mph ()    
Max Wind Speed 12 mph    
Max Gust Speed -    
Visibility 7.7 miles    
Events Rain    
Averages and records for this station are not official NWS values.
T = Trace of Precipitation, MM = Missing Value Source: Averaged Metar Reports

Daily Weather History Graph

Daily Weather History Graph

Search for Another Location

Airport or City:

Astronomy

Oct. 01, 2019 Rise Set
Actual Time 7:09 AM CDT 6:54 PM CDT
Civil Twilight 6:41 AM CDT 7:22 PM CDT
Nautical Twilight 6:09 AM CDT 7:55 PM CDT
Astronomical Twilight 5:36 AM CDT 8:28 PM CDT
Moon 10:30 AM CDT (10/1) 9:04 PM CDT (10/1)
Length of Visible Light 12h 40m
Length of Day
11h 44m
Waxing Crescent, 12% of the Moon is Illuminated
Oct 1
Waxing Crescent
Oct 5
First Quarter
Oct 13
Full
Oct 21
Last Quarter
Oct 27
New

Hourly Weather History & Observations

Time (CDT) Temp. Dew Point Humidity Pressure Visibility Wind Dir Wind Speed Gust Speed Precip Events Conditions
12:15 AM 74.8 °F 67.8 °F 79% 29.88 in 10.0 mi South 6.9 mph - N/A   Clear
12:35 AM 74.7 °F 68.0 °F 80% 29.87 in 10.0 mi South 6.9 mph - N/A   Clear
12:55 AM 74.8 °F 68.0 °F 79% 29.87 in 10.0 mi South 6.9 mph - N/A   Mostly Cloudy
1:15 AM 74.7 °F 67.6 °F 79% 29.87 in 10.0 mi South 8.1 mph - N/A   Scattered Clouds
1:35 AM 74.3 °F 67.6 °F 80% 29.88 in 10.0 mi South 6.9 mph - N/A   Scattered Clouds
1:55 AM 73.9 °F 67.5 °F 80% 29.88 in 10.0 mi South 8.1 mph - N/A   Scattered Clouds
2:15 AM 73.9 °F 67.5 °F 80% 29.89 in 10.0 mi South 8.1 mph - N/A   Scattered Clouds
2:35 AM 74.3 °F 67.5 °F 79% 29.88 in 10.0 mi South 8.1 mph - N/A   Scattered Clouds
2:55 AM 74.3 °F 67.5 °F 79% 29.89 in 10.0 mi SSW 5.8 mph - N/A   Light Drizzle
3:15 AM 73.8 °F 67.5 °F 81% 29.89 in 10.0 mi SSW 8.1 mph - N/A   Light Drizzle
3:35 AM 73.6 °F 67.5 °F 81% 29.88 in 10.0 mi SSW 6.9 mph - N/A   Mostly Cloudy
3:55 AM 73.4 °F 67.5 °F 82% 29.88 in 10.0 mi SSW 4.6 mph - N/A   Mostly Cloudy
4:15 AM 73.0 °F 67.3 °F 82% 29.89 in 10.0 mi South 4.6 mph - N/A Rain Light Rain
4:35 AM 72.7 °F 67.3 °F 83% 29.89 in 10.0 mi SSW 6.9 mph - N/A   Light Drizzle
4:55 AM 72.9 °F 67.5 °F 83% 29.89 in 10.0 mi SSW 5.8 mph - N/A   Overcast
5:15 AM 72.7 °F 67.1 °F 83% 29.89 in 10.0 mi WSW 6.9 mph - N/A   Overcast
5:35 AM 70.9 °F 65.3 °F 82% 29.88 in 10.0 mi WNW 3.5 mph - N/A   Overcast
5:55 AM 69.8 °F 64.8 °F 84% 29.89 in 10.0 mi Calm Calm - N/A   Overcast
6:15 AM 69.4 °F 64.8 °F 85% 29.89 in 7.0 mi NNE 3.5 mph - N/A   Overcast
6:35 AM 68.4 °F 63.9 °F 85% 29.89 in 10.0 mi Calm Calm - N/A   Overcast
6:55 AM 68.2 °F 63.7 °F 85% 29.91 in 7.0 mi NNW 8.1 mph - N/A   Overcast
7:15 AM 65.3 °F 60.8 °F 85% 29.91 in 4.0 mi North 10.4 mph - N/A   Drizzle
7:35 AM 63.5 °F 59.2 °F 86% 29.90 in 5.0 mi North 6.9 mph - N/A   Light Drizzle
7:55 AM 63.5 °F 59.4 °F 86% 29.91 in 3.0 mi NE 4.6 mph - 0.10 in Rain Light Rain
8:15 AM 63.7 °F 59.5 °F 86% 29.90 in 10.0 mi NE 3.5 mph - N/A   Overcast
8:35 AM 63.5 °F 59.4 °F 86% 29.92 in 4.0 mi North 5.8 mph - 0.01 in Rain Heavy Rain
8:55 AM 62.8 °F 59.0 °F 87% 29.92 in 5.0 mi North 9.2 mph - 0.02 in   Drizzle
9:15 AM 62.6 °F 58.6 °F 87% 29.93 in 7.0 mi NNE 4.6 mph - N/A   Drizzle
9:35 AM 63.0 °F 59.0 °F 87% 29.93 in 5.0 mi NE 4.6 mph - N/A   Light Drizzle
9:55 AM 62.8 °F 59.0 °F 87% 29.93 in 5.0 mi ENE 4.6 mph - N/A   Drizzle
10:15 AM 63.3 °F 59.4 °F 87% 29.93 in 4.0 mi North 4.6 mph - 0.01 in   Drizzle
10:35 AM 63.5 °F 59.5 °F 87% 29.94 in 3.0 mi North 6.9 mph - 0.01 in   Drizzle
10:55 AM 63.5 °F 59.5 °F 87% 29.93 in 4.0 mi North 6.9 mph - 0.01 in   Drizzle
11:15 AM 63.5 °F 59.9 °F 88% 29.92 in 5.0 mi NNE 8.1 mph - N/A   Overcast
11:35 AM 63.9 °F 60.1 °F 87% 29.94 in 4.0 mi NNE 3.5 mph - N/A   Overcast
11:55 AM 64.0 °F 60.3 °F 87% 29.94 in 3.0 mi North 3.5 mph - N/A   Light Drizzle
12:15 PM 63.9 °F 60.1 °F 87% 29.93 in 3.0 mi NNE 5.8 mph - N/A   Light Drizzle
12:35 PM 64.6 °F 60.8 °F 88% 29.93 in 4.0 mi NE 5.8 mph - N/A   Overcast
12:55 PM 64.9 °F 61.0 °F 87% 29.92 in 10.0 mi ENE 6.9 mph - N/A   Overcast
1:15 PM 65.3 °F 61.5 °F 88% 29.92 in 10.0 mi ENE 5.8 mph - N/A   Overcast
1:55 PM 65.8 °F 61.7 °F 86% 29.91 in 10.0 mi NE 5.8 mph - N/A   Overcast
2:15 PM 65.8 °F 61.7 °F 86% 29.90 in 5.0 mi Calm Calm - N/A   Overcast
2:35 PM 66.2 °F 61.9 °F 86% 29.89 in 5.0 mi NE 5.8 mph - N/A   Overcast
2:55 PM 66.2 °F 62.1 °F 86% 29.89 in 5.0 mi NE 4.6 mph - N/A   Overcast
3:15 PM 66.2 °F 62.1 °F 86% 29.89 in 10.0 mi NNE 4.6 mph - N/A   Overcast
3:35 PM 66.4 °F 62.6 °F 88% 29.88 in 10.0 mi NE 6.9 mph - N/A   Overcast
3:55 PM 67.3 °F 63.3 °F 87% 29.87 in 10.0 mi NE 5.8 mph - N/A   Overcast
4:15 PM 67.1 °F 62.8 °F 86% 29.87 in 10.0 mi ENE 4.6 mph - N/A   Overcast
4:35 PM 67.3 °F 63.0 °F 86% 29.86 in 10.0 mi NNE 6.9 mph - N/A   Overcast
4:55 PM 66.7 °F 62.4 °F 86% 29.86 in 10.0 mi NNE 6.9 mph - 0.01 in Rain Rain
5:35 PM 64.6 °F 60.4 °F 86% 29.87 in 0.8 mi North 9.2 mph - 0.38 in Rain Heavy Rain
5:55 PM 63.7 °F 59.7 °F 87% 29.89 in 5.0 mi North 11.5 mph - 0.47 in Rain Rain
6:15 PM 62.6 °F 58.6 °F 87% 29.89 in 2.5 mi North 10.4 mph - 0.19 in Rain Heavy Rain
6:35 PM 62.1 °F 58.1 °F 87% 29.89 in 7.0 mi NNE 10.4 mph - 0.29 in Rain Heavy Rain
6:55 PM 61.7 °F 57.6 °F 86% 29.89 in 7.0 mi NNE 5.8 mph - 0.35 in Rain Heavy Rain
7:15 PM 61.2 °F 57.4 °F 87% 29.88 in 4.0 mi NNE 9.2 mph - 0.10 in Rain Heavy Rain
7:35 PM 60.8 °F 57.0 °F 87% 29.86 in 10.0 mi NE 5.8 mph - 0.18 in Rain Rain
7:55 PM 60.8 °F 57.2 °F 88% 29.87 in 10.0 mi NNE 8.1 mph - 0.20 in Rain Light Rain
8:15 PM 60.8 °F 57.2 °F 88% 29.87 in 10.0 mi NNE 9.2 mph - 0.01 in Rain Rain
8:35 PM 61.0 °F 57.4 °F 88% 29.88 in 10.0 mi North 5.8 mph - 0.02 in Rain Light Rain
8:55 PM 60.4 °F 56.8 °F 88% 29.88 in 10.0 mi NE 8.1 mph - 0.04 in Rain Rain
9:15 PM 60.1 °F 56.7 °F 88% 29.88 in 5.0 mi ENE 8.1 mph - 0.07 in Rain Heavy Rain
9:35 PM 60.1 °F 56.7 °F 88% 29.89 in 10.0 mi NNE 4.6 mph - 0.09 in Rain Light Rain
9:55 PM 59.9 °F 56.3 °F 88% 29.88 in 10.0 mi NE 8.1 mph - 0.10 in Rain Rain
10:15 PM 59.4 °F 56.1 °F 89% 29.87 in 10.0 mi NE 6.9 mph - N/A   Light Drizzle
10:35 PM 59.2 °F 55.9 °F 89% 29.87 in 10.0 mi NE 8.1 mph - 0.01 in Rain Light Rain
10:55 PM 59.0 °F 55.8 °F 89% 29.87 in 10.0 mi NNE 8.1 mph - 0.02 in   Light Drizzle
11:15 PM 59.0 °F 55.8 °F 89% 29.87 in 10.0 mi North 6.9 mph - N/A Rain Rain
11:35 PM 59.0 °F 55.6 °F 88% 29.88 in 5.0 mi North 5.8 mph - 0.06 in Rain Rain
11:55 PM 58.6 °F 55.4 °F 89% 29.86 in 7.0 mi North 8.1 mph - 0.14 in Rain Heavy Rain